Terminal Aerodrome Forecast
Issued by NWS St Louis, MO

Home | Current Version | Previous Version | Text Only | Print | Product List | Glossary On
Versions: 1 2 3 4 5 6 7 8 9 10 11 12 13 14 15 16 17 18 19 20 21 22 23 24 25 26
000
FTUS43 KLSX 140900 AAA
TAFSTL
TAF AMD
KSTL 140910Z 1409/1512 VRB03KT P6SM SCT250
     FM141300 11005KT P6SM SCT080
     FM141800 13007KT P6SM SCT050
     FM150500 14005KT P6SM BKN150=

USA.gov is the U.S. government's official web portal to all federal, state and local government web resources and services.